This is the latest recevied weather packets stored in our database for station/object NN5DX-13. If no packets are shown the sender has not sent any weather packets the latest 10 day(s).
| Time | Temp. | Humidity | Pressure | Rain* | Wind** | Luminosity | Snow |
|---|---|---|---|---|---|---|---|
| 1778202316 | 18.33° C | 59% | 1013.6 hPa | 0 mm | - | - | - |
| 1778202016 | 18.89° C | 59% | 1013.6 hPa | 0 mm | - | - | - |
| 1778201716 | 18.89° C | 58% | 1013.7 hPa | 0 mm | - | - | - |
| 1778201416 | 18.89° C | 58% | 1013.7 hPa | 0 mm | - | - | - |
| 1778201117 | 18.89° C | 58% | 1013.5 hPa | 0 mm | - | - | - |
| 1778200816 | 19.44° C | 59% | 1013.5 hPa | 0 mm | - | - | - |
| 1778200516 | 19.44° C | 59% | 1013.7 hPa | 0 mm | - | - | - |
| 1778200216 | 20° C | 58% | 1013.6 hPa | 0 mm | - | - | - |
| 1778199917 | 20° C | 58% | 1013.6 hPa | 0 mm | - | - | - |
| 1778199616 | 20° C | 57% | 1013.5 hPa | 0 mm | - | - | - |
| 1778199316 | 20.56° C | 56% | 1013.7 hPa | 0 mm | - | - | - |
| 1778199016 | 20.56° C | 56% | 1013.7 hPa | 0 mm | - | - | - |
| 1778198716 | 20.56° C | 55% | 1013.9 hPa | 0 mm | - | - | - |
| 1778198416 | 21.11° C | 54% | 1014 hPa | 0 mm | - | - | - |
| 1778198116 | 21.67° C | 53% | 1014.1 hPa | 0 mm | - | - | - |
| 1778197817 | 21.67° C | 53% | 1014 hPa | 0 mm | - | - | - |
| 1778197516 | 21.67° C | 53% | 1014.1 hPa | 0 mm | - | - | - |
| 1778197216 | 21.67° C | 53% | 1014 hPa | 0 mm | - | - | - |
| 1778196917 | 21.67° C | 53% | 1014.2 hPa | 0 mm | - | - | - |
| 1778196616 | 22.22° C | 52% | 1014.1 hPa | 0 mm | - | - | - |
| 1778196316 | 21.67° C | 52% | 1014 hPa | 0 mm | - | - | - |
| 1778196016 | 21.67° C | 52% | 1014 hPa | 0 mm | - | - | - |
| 1778195716 | 21.67° C | 52% | 1014 hPa | 0 mm | - | - | - |
| 1778195416 | 21.67° C | 52% | 1014 hPa | 0 mm | - | - | - |
| 1778195116 | 21.67° C | 52% | 1014.1 hPa | 0 mm | - | - | - |
* Rain latest hour (hover to see other rain measurements)
** Current wind speed in m/s (hover to see current wind gust speed)